Date String (YYYY-MM-DD hh:mm:ss) UTC,Instrument flags,Ambient pressure (hPa),Sample flow (lpm),Bypass flow (lpm),Sample temperature (°C),Ambient temperature (°C),ASC tube jacket temperature (°C),LED temperature (°C),Box temperature (°C),Sample RH (%),Span deviation,Mass concentration (μg/m³),Mass concentration (μg/m³),Mass concentration (μg/m³)
DateTimeUTC,F1_M11,P_M11,Q1_M11,Q2_M11,T1_M11,T2_M11,T3_M11,T4_M11,T5_M11,U1_M11,ZSPAN_M11,X0_M11,X2_M11,X1_M11
2023-05-25 04:00:00,,0830.7,5.00,0.00,29.8,28.1,00.0,38.2,31.4,26.8,0004.0,0014.76,0009.97,0009.49
2023-05-25 04:01:00,,0830.7,5.00,0.00,29.8,28.1,00.0,38.2,31.4,26.9,0003.9,0014.83,0010.01,0009.51
2023-05-25 04:02:00,,0830.7,5.00,0.00,29.8,28.2,00.0,38.2,31.4,26.9,0003.9,0014.77,0010.01,0009.54
2023-05-25 04:03:00,,0830.7,5.00,0.00,29.8,28.2,00.0,38.2,31.4,27.0,0003.8,0014.89,0010.09,0009.57
2023-05-25 04:04:00,,0830.7,4.99,0.00,29.8,28.2,00.0,38.2,31.4,27.3,0003.9,0014.87,0010.12,0009.63
2023-05-25 04:05:00,,0830.7,4.99,0.00,29.8,28.2,00.0,38.2,31.4,27.2,0003.9,0014.91,0010.13,0009.63
2023-05-25 04:06:00,,0830.7,5.01,0.00,29.8,28.2,00.0,38.2,31.4,27.0,0003.9,0015.01,0010.17,0009.67
2023-05-25 04:07:00,,0830.7,4.99,0.00,29.8,28.2,00.0,38.2,31.4,26.6,0003.9,0015.04,0010.20,0009.71
2023-05-25 04:08:00,,0830.7,5.00,0.00,29.8,28.2,00.0,38.2,31.4,26.6,0003.9,0014.85,0010.20,0009.72
2023-05-25 04:09:00,,0830.7,4.99,0.00,29.8,28.2,00.0,38.2,31.4,26.3,0003.8,0014.84,0010.20,0009.71
2023-05-25 04:10:00,,0830.7,5.00,0.00,29.8,28.2,00.0,38.2,31.4,27.0,0003.7,0014.81,0010.20,0009.71
2023-05-25 04:11:00,,0830.7,5.00,0.00,29.8,28.2,00.0,38.2,31.4,27.5,0003.8,0014.84,0010.20,0009.70
2023-05-25 04:12:00,,0830.7,5.00,0.00,29.8,28.2,00.0,38.2,31.4,27.1,0003.8,0014.93,0010.24,0009.73
2023-05-25 04:13:00,,0830.7,5.00,0.00,29.8,28.2,00.0,38.2,31.4,27.8,0003.9,0015.01,0010.27,0009.74
2023-05-25 04:14:00,,0830.7,5.00,0.00,29.8,28.2,00.0,38.2,31.4,28.2,0003.8,0015.03,0010.30,0009.79
2023-05-25 04:15:00,,0830.8,5.00,0.00,29.8,28.2,00.0,38.2,31.4,27.9,0003.8,0015.48,0010.39,0009.83
2023-05-25 04:16:00,,0830.8,4.99,0.00,29.8,28.2,00.0,38.2,31.4,27.3,0003.8,0015.90,0010.46,0009.86
2023-05-25 04:17:00,,0830.8,4.99,0.00,29.8,28.2,00.0,38.2,31.4,27.3,0003.8,0015.86,0010.48,0009.88
2023-05-25 04:18:00,,0830.8,5.00,0.00,29.8,28.2,00.0,38.2,31.4,27.4,0003.8,0016.00,0010.53,0009.90
2023-05-25 04:19:00,,0830.7,5.00,0.00,29.8,28.2,00.0,38.2,31.4,27.2,0003.8,0016.19,0010.60,0009.91
2023-05-25 04:20:00,,0830.7,5.00,0.00,29.8,28.2,00.0,38.2,31.4,26.8,0003.8,0016.18,0010.58,0009.90
2023-05-25 04:21:00,,0830.7,5.00,0.00,29.8,28.2,00.0,38.2,31.4,26.6,0003.8,0016.24,0010.57,0009.88
2023-05-25 04:22:00,,0830.7,5.00,0.00,29.8,28.2,00.0,38.2,31.4,28.0,0003.8,0016.62,0010.66,0009.94
2023-05-25 04:23:00,,0830.7,5.00,0.00,29.8,28.2,00.0,38.2,31.4,28.9,0003.8,0016.70,0010.69,0009.97
2023-05-25 04:24:00,,0830.7,5.00,0.00,29.9,28.2,00.0,38.2,31.4,29.3,0003.7,0016.80,0010.73,0010.00
2023-05-25 04:25:00,,0830.6,5.01,0.00,29.9,28.2,00.0,38.2,31.4,29.2,0003.6,0016.80,0010.73,0010.00
2023-05-25 04:26:00,,0830.7,5.01,0.00,29.9,28.2,00.0,38.2,31.4,28.8,0003.6,0016.73,0010.72,0010.01
2023-05-25 04:27:00,,0830.7,5.00,0.00,29.9,28.2,00.0,38.2,31.4,28.3,0003.5,0016.37,0010.75,0010.02
2023-05-25 04:28:00,,0830.6,5.00,0.00,29.9,28.2,00.0,38.2,31.4,28.5,0003.5,0016.54,0010.79,0010.04
2023-05-25 04:29:00,,0830.6,5.00,0.00,29.9,28.2,00.0,38.2,31.4,28.7,0003.5,0016.58,0010.80,0010.07
2023-05-25 04:30:00,,0830.7,4.99,0.00,29.9,28.2,00.0,38.3,31.4,28.4,0003.5,0016.38,0010.76,0010.10
2023-05-25 04:31:00,,0830.6,4.99,0.00,29.9,28.3,00.0,38.3,31.4,28.0,0003.5,0016.33,0010.78,0010.16
2023-05-25 04:32:00,,0830.6,5.00,0.00,29.9,28.3,00.0,38.3,31.4,27.8,0003.5,0016.42,0010.84,0010.21
2023-05-25 04:33:00,,0830.6,5.00,0.00,29.9,28.3,00.0,38.3,31.4,27.6,0003.4,0016.29,0010.83,0010.22
2023-05-25 04:34:00,,0830.6,5.00,0.00,29.9,28.3,00.0,38.3,31.4,27.2,0003.3,0016.01,0010.78,0010.18
2023-05-25 04:35:00,,0830.6,5.00,0.00,29.9,28.3,00.0,38.3,31.4,26.8,0003.2,0016.09,0010.71,0010.13
2023-05-25 04:36:00,,0830.6,5.01,0.00,29.9,28.2,00.0,38.3,31.4,26.8,0003.2,0016.09,0010.67,0010.10
2023-05-25 04:37:00,,0830.6,5.01,0.00,29.9,28.2,00.0,38.3,31.4,27.1,0003.2,0016.25,0010.61,0010.05
2023-05-25 04:38:00,,0830.5,5.01,0.00,29.9,28.2,00.0,38.3,31.4,27.3,0003.2,0016.29,0010.51,0010.00
2023-05-25 04:39:00,,0830.5,4.99,0.00,29.9,28.2,00.0,38.3,31.4,27.2,0003.1,0016.10,0010.43,0009.95
2023-05-25 04:40:00,,0830.5,5.00,0.00,29.9,28.2,00.0,38.3,31.4,27.0,0003.2,0016.06,0010.40,0009.89
2023-05-25 04:41:00,,0830.5,4.99,0.00,29.9,28.2,00.0,38.3,31.4,27.4,0003.1,0016.14,0010.37,0009.81
2023-05-25 04:42:00,,0830.6,4.99,0.00,29.9,28.2,00.0,38.3,31.4,27.2,0003.1,0016.05,0010.31,0009.73
2023-05-25 04:43:00,,0830.5,5.00,0.00,29.9,28.2,00.0,38.3,31.4,26.7,0003.2,0015.92,0010.25,0009.69
2023-05-25 04:44:00,,0830.5,5.00,0.00,29.9,28.2,00.0,38.3,31.4,26.5,0003.3,0015.85,0010.23,0009.65
2023-05-25 04:45:00,,0830.7,5.01,0.00,29.9,28.2,00.0,38.3,31.4,26.6,0003.5,0015.99,0010.25,0009.65
2023-05-25 04:46:00,,0830.5,5.00,0.00,29.9,28.3,00.0,38.3,31.4,26.4,0003.4,0015.89,0010.28,0009.67
2023-05-25 04:47:00,,0830.5,5.01,0.00,29.9,28.3,00.0,38.3,31.5,26.5,0003.4,0015.80,0010.29,0009.67
2023-05-25 04:48:00,,0830.5,5.01,0.00,29.9,28.3,00.0,38.3,31.5,26.4,0003.4,0015.55,0010.26,0009.65
2023-05-25 04:49:00,,0830.5,4.99,0.00,29.9,28.3,00.0,38.3,31.4,26.4,0003.4,0015.22,0010.24,0009.64
2023-05-25 04:50:00,,0830.5,4.99,0.00,29.9,28.3,00.0,38.3,31.4,26.4,0003.5,0015.22,0010.26,0009.65
2023-05-25 04:51:00,,0830.5,5.00,0.00,29.9,28.3,00.0,38.3,31.4,26.4,0003.5,0015.10,0010.23,0009.66
2023-05-25 04:52:00,,0830.6,5.01,0.00,29.9,28.3,00.0,38.3,31.5,26.4,0003.4,0014.98,0010.24,0009.71
2023-05-25 04:53:00,,0830.5,5.01,0.00,29.9,28.3,00.0,38.3,31.5,26.5,0003.5,0015.04,0010.29,0009.75
2023-05-25 04:54:00,,0830.5,5.00,0.00,29.9,28.3,00.0,38.3,31.5,26.3,0003.5,0015.14,0010.36,0009.80
2023-05-25 04:55:00,,0830.4,4.99,0.00,29.9,28.3,00.0,38.3,31.5,26.2,0003.6,0015.07,0010.38,0009.86
2023-05-25 04:56:00,,0830.6,4.99,0.00,29.9,28.3,00.0,38.3,31.5,26.2,0003.5,0015.09,0010.42,0009.90
2023-05-25 04:57:00,,0830.4,5.01,0.00,29.9,28.3,00.0,38.3,31.5,26.1,0003.6,0015.13,0010.46,0009.92
2023-05-25 04:58:00,,0830.4,5.00,0.00,29.9,28.3,00.0,38.3,31.5,25.7,0003.5,0015.16,0010.47,0009.92
2023-05-25 04:59:00,,0830.4,5.00,0.00,29.9,28.3,00.0,38.3,31.5,25.4,0003.6,0015.16,0010.49,0009.95
